| time (UTC) | temp C | wind direction | speed KPH | gust KPH | rain 1hr cm | rain 24hr cm | rain mn cm | humidity % | barometer mb |
| 20260506081303 | 16 | 45 | 0.0 | 3.2 | 0.00 | 0.00 | 0.00 | 62 | 1005.7 |
| 20260506080804 | 16 | 109 | 0.0 | 3.2 | 0.00 | 0.00 | 0.00 | 62 | 1005.7 |
| 20260506080303 | 16 | 65 | 0.0 | 3.2 | 0.00 | 0.00 | 0.00 | 62 | 1005.8 |
| 20260506073303 | 17 | 59 | 0.0 | 3.2 | 0.00 | 0.00 | 0.00 | 60 | 1005.9 |
| 20260506072305 | 17 | 65 | 1.6 | 3.2 | 0.00 | 0.00 | 0.00 | 59 | 1005.9 |
| 20260506071803 | 17 | 55 | 0.0 | 4.8 | 0.00 | 0.00 | 0.00 | 59 | 1006.1 |
| 20260506071303 | 17 | 99 | 1.6 | 4.8 | 0.00 | 0.00 | 0.00 | 58 | 1006.2 |
| 20260506070803 | 17 | 173 | 0.0 | 4.8 | 0.00 | 0.00 | 0.00 | 58 | 1006.2 |
| 20260506070303 | 17 | 165 | 1.6 | 4.8 | 0.00 | 0.00 | 0.00 | 57 | 1006.3 |
| 20260506061803 | 17 | 88 | 1.6 | 4.8 | 0.00 | 0.00 | 0.00 | 59 | 1006.5 |
| 20260506061303 | 16 | 220 | 1.6 | 3.2 | 0.00 | 0.00 | 0.00 | 60 | 1006.6 |
| 20260506060803 | 16 | 312 | 0.0 | 3.2 | 0.00 | 0.00 | 0.00 | 62 | 1006.7 |
| 20260506060303 | 16 | 313 | 0.0 | 4.8 | 0.00 | 0.00 | 0.00 | 61 | 1006.8 |
| 20260506051303 | 14 | 4 | 1.6 | 4.8 | 0.00 | 0.00 | 0.00 | 65 | 1007.2 |
| 20260506050803 | 14 | 5 | 1.6 | 4.8 | 0.00 | 0.00 | 0.00 | 67 | 1007.2 |
| 20260506050303 | 13 | 297 | 0.0 | 3.2 | 0.00 | 0.00 | 0.00 | 68 | 1007.3 |
| 20260506044803 | 13 | 347 | 1.6 | 4.8 | 0.00 | 0.00 | 0.00 | 71 | 1007.2 |
| 20260506044304 | 13 | 336 | 0.0 | 4.8 | 0.00 | 0.00 | 0.00 | 72 | 1007.3 |
| 20260506043803 | 13 | 350 | 1.6 | 4.8 | 0.00 | 0.00 | 0.00 | 69 | 1007.3 |
| 20260506042803 | 13 | 338 | 1.6 | 3.2 | 0.00 | 0.00 | 0.00 | 70 | 1007.4 |
| 20260506042305 | 13 | 346 | 1.6 | 3.2 | 0.00 | 0.00 | 0.00 | 71 | 1007.4 |
| 20260506041803 | 13 | 332 | 1.6 | 3.2 | 0.00 | 0.00 | 0.00 | 71 | 1007.4 |
| 20260506041303 | 13 | 339 | 0.0 | 3.2 | 0.00 | 0.00 | 0.00 | 72 | 1007.3 |
| 20260506040815 | 13 | 303 | 0.0 | 0.0 | 0.00 | 0.00 | 0.00 | 69 | 1007.3 |
| 20260506035804 | 13 | 298 | 0.0 | 0.0 | 0.00 | 0.00 | 0.00 | 70 | 1007.4 |
| 20260506035305 | 14 | 298 | 0.0 | 0.0 | 0.00 | 0.00 | 0.00 | 69 | 1007.4 |
| 20260506034804 | 14 | 298 | 0.0 | 0.0 | 0.00 | 0.00 | 0.00 | 70 | 1007.4 |
| 20260506034303 | 15 | 298 | 0.0 | 0.0 | 0.00 | 0.00 | 0.00 | 69 | 1007.4 |
| 20260506033804 | 15 | 298 | 0.0 | 0.0 | 0.00 | 0.00 | 0.00 | 67 | 1007.4 |
| 20260506033303 | 15 | 298 | 0.0 | 0.0 | 0.00 | 0.00 | 0.00 | 66 | 1007.3 |
| 20260506032803 | 15 | 298 | 0.0 | 0.0 | 0.00 | 0.00 | 0.00 | 64 | 1007.3 |
| 20260506031804 | 16 | 298 | 0.0 | 0.0 | 0.00 | 0.00 | 0.00 | 65 | 1007.3 |
| 20260506031303 | 16 | 298 | 0.0 | 0.0 | 0.00 | 0.00 | 0.00 | 62 | 1007.3 |
| 20260506030803 | 16 | 298 | 0.0 | 0.0 | 0.00 | 0.00 | 0.00 | 60 | 1007.3 |
| 20260506030303 | 17 | 298 | 0.0 | 0.0 | 0.00 | 0.00 | 0.00 | 62 | 1007.3 |
| 20260506025803 | 17 | 298 | 0.0 | 3.2 | 0.00 | 0.00 | 0.00 | 58 | 1007.2 |
| 20260506024803 | 18 | 124 | 0.0 | 4.8 | 0.00 | 0.00 | 0.00 | 56 | 1007.3 |
| 20260506023803 | 18 | 77 | 0.0 | 3.2 | 0.00 | 0.00 | 0.00 | 52 | 1007.3 |
| 20260506023303 | 19 | 249 | 0.0 | 3.2 | 0.00 | 0.00 | 0.00 | 55 | 1007.3 |
| 20260506022305 | 19 | 178 | 1.6 | 3.2 | 0.00 | 0.00 | 0.00 | 51 | 1007.4 |
| 20260506021803 | 20 | 182 | 0.0 | 3.2 | 0.00 | 0.00 | 0.00 | 50 | 1007.5 |
| 20260506021303 | 20 | 191 | 0.0 | 3.2 | 0.00 | 0.00 | 0.00 | 49 | 1007.4 |
| 20260506020804 | 20 | 201 | 0.0 | 1.6 | 0.00 | 0.00 | 0.00 | 49 | 1007.5 |
| 20260506020303 | 20 | 175 | 0.0 | 4.8 | 0.00 | 0.00 | 0.00 | 49 | 1007.4 |
| 20260506015804 | 20 | 171 | 0.0 | 4.8 | 0.00 | 0.00 | 0.00 | 47 | 1007.4 |
| 20260506015306 | 20 | 137 | 3.2 | 4.8 | 0.00 | 0.00 | 0.00 | 47 | 1007.4 |
| 20260506014803 | 21 | 141 | 1.6 | 4.8 | 0.00 | 0.00 | 0.00 | 47 | 1007.3 |
| 20260506013804 | 21 | 110 | 0.0 | 4.8 | 0.00 | 0.00 | 0.00 | 47 | 1007.3 |
| 20260506013303 | 21 | 176 | 3.2 | 4.8 | 0.00 | 0.00 | 0.00 | 46 | 1007.2 |
| 20260506012803 | 21 | 228 | 0.0 | 4.8 | 0.00 | 0.00 | 0.00 | 46 | 1007.2 |
| 20260506012307 | 21 | 164 | 1.6 | 4.8 | 0.00 | 0.00 | 0.00 | 45 | 1007.1 |
| 20260506011803 | 21 | 156 | 1.6 | 3.2 | 0.00 | 0.00 | 0.00 | 45 | 1007.0 |
| 20260506011303 | 21 | 144 | 0.0 | 14.5 | 0.00 | 0.00 | 0.00 | 44 | 1006.9 |
| 20260506010304 | 22 | 157 | 3.2 | 9.7 | 0.00 | 0.00 | 0.00 | 45 | 1006.7 |
| 20260506005803 | 22 | 158 | 1.6 | 4.8 | 0.00 | 0.00 | 0.00 | 43 | 1006.6 |
| 20260506005305 | 22 | 147 | 1.6 | 4.8 | 0.00 | 0.00 | 0.00 | 44 | 1006.6 |
| 20260506004803 | 22 | 122 | 1.6 | 4.8 | 0.00 | 0.00 | 0.00 | 43 | 1006.5 |
| 20260506004303 | 22 | 240 | 0.0 | 8.0 | 0.00 | 0.00 | 0.00 | 44 | 1006.5 |
| 20260506003304 | 22 | 175 | 3.2 | 11.3 | 0.00 | 0.00 | 0.00 | 42 | 1006.3 |
| 20260506002803 | 22 | 135 | 0.0 | 11.3 | 0.00 | 0.00 | 0.00 | 41 | 1006.2 |
| 20260506002305 | 22 | 172 | 1.6 | 4.8 | 0.00 | 0.00 | 0.00 | 41 | 1006.1 |
| 20260506001803 | 22 | 143 | 3.2 | 8.0 | 0.00 | 0.00 | 0.00 | 40 | 1006.1 |
| 20260506001303 | 22 | 148 | 3.2 | 8.0 | 0.00 | 0.00 | 0.00 | 41 | 1006.0 |
| 20260506000803 | 22 | 190 | 4.8 | 8.0 | 0.00 | 0.00 | 0.00 | 40 | 1006.0 |
| 20260505235803 | 23 | 163 | 3.2 | 12.9 | 0.00 | 0.00 | 0.00 | 40 | 1006.0 |
| 20260505235305 | 23 | 217 | 4.8 | 19.3 | 0.00 | 0.00 | 0.00 | 39 | 1006.0 |
| 20260505234804 | 23 | 151 | 6.4 | 19.3 | 0.00 | 0.00 | 0.00 | 40 | 1006.0 |
| 20260505234303 | 23 | 182 | 3.2 | 19.3 | 0.00 | 0.00 | 0.00 | 39 | 1006.0 |
| 20260505233303 | 23 | 163 | 4.8 | 19.3 | 0.00 | 0.00 | 0.00 | 39 | 1006.0 |
| 20260505232804 | 23 | 143 | 6.4 | 12.9 | 0.00 | 0.00 | 0.00 | 39 | 1006.0 |
| 20260505232305 | 23 | 185 | 3.2 | 12.9 | 0.00 | 0.00 | 0.00 | 40 | 1006.0 |
| 20260505231803 | 23 | 135 | 4.8 | 12.9 | 0.00 | 0.00 | 0.00 | 39 | 1005.9 |
| 20260505231303 | 23 | 125 | 4.8 | 14.5 | 0.00 | 0.00 | 0.00 | 40 | 1006.0 |
| 20260505230803 | 23 | 158 | 4.8 | 19.3 | 0.00 | 0.00 | 0.00 | 39 | 1006.0 |
| 20260505230303 | 23 | 184 | 6.4 | 19.3 | 0.00 | 0.00 | 0.00 | 39 | 1006.0 |
| 20260505225803 | 23 | 172 | 4.8 | 19.3 | 0.00 | 0.00 | 0.00 | 40 | 1006.0 |
| 20260505225305 | 23 | 152 | 4.8 | 14.5 | 0.00 | 0.00 | 0.00 | 40 | 1006.0 |
| 20260505224804 | 23 | 206 | 3.2 | 14.5 | 0.00 | 0.00 | 0.00 | 40 | 1006.0 |
| 20260505224304 | 23 | 175 | 3.2 | 14.5 | 0.00 | 0.00 | 0.00 | 40 | 1006.0 |
| 20260505222803 | 23 | 133 | 3.2 | 29.0 | 0.00 | 0.00 | 0.00 | 40 | 1005.9 |
| 20260505221804 | 23 | 177 | 4.8 | 25.7 | 0.00 | 0.00 | 0.00 | 41 | 1005.9 |
| 20260505221303 | 23 | 167 | 8.0 | 25.7 | 0.00 | 0.00 | 0.00 | 40 | 1005.9 |
| 20260505220804 | 23 | 164 | 9.7 | 25.7 | 0.00 | 0.00 | 0.00 | 40 | 1005.8 |
| 20260505220303 | 23 | 159 | 8.0 | 25.7 | 0.00 | 0.00 | 0.00 | 41 | 1005.9 |
| 20260505215803 | 23 | 211 | 3.2 | 19.3 | 0.00 | 0.00 | 0.00 | 40 | 1005.8 |
| 20260505215305 | 23 | 124 | 8.0 | 19.3 | 0.00 | 0.00 | 0.00 | 40 | 1005.7 |
| 20260505214804 | 23 | 173 | 4.8 | 19.3 | 0.00 | 0.00 | 0.00 | 40 | 1005.8 |
| 20260505214304 | 23 | 180 | 4.8 | 19.3 | 0.00 | 0.00 | 0.00 | 40 | 1005.8 |
| 20260505213303 | 23 | 169 | 4.8 | 19.3 | 0.00 | 0.00 | 0.00 | 39 | 1005.8 |
| 20260505212803 | 23 | 134 | 8.0 | 32.2 | 0.00 | 0.00 | 0.00 | 39 | 1005.8 |
| 20260505212305 | 23 | 158 | 8.0 | 32.2 | 0.00 | 0.00 | 0.00 | 39 | 1005.7 |
| 20260505211803 | 23 | 155 | 9.7 | 22.5 | 0.00 | 0.00 | 0.00 | 38 | 1005.6 |
| 20260505211303 | 23 | 186 | 9.7 | 22.5 | 0.00 | 0.00 | 0.00 | 38 | 1005.6 |
| 20260505205305 | 23 | 196 | 4.8 | 27.4 | 0.00 | 0.00 | 0.00 | 39 | 1005.5 |
| 20260505204804 | 24 | 160 | 8.0 | 27.4 | 0.00 | 0.00 | 0.00 | 38 | 1005.4 |
| 20260505204304 | 24 | 190 | 12.9 | 22.5 | 0.00 | 0.00 | 0.00 | 38 | 1005.4 |
| 20260505203803 | 24 | 215 | 4.8 | 29.0 | 0.00 | 0.00 | 0.00 | 38 | 1005.4 |
| 20260505203304 | 24 | 131 | 6.4 | 33.8 | 0.00 | 0.00 | 0.00 | 37 | 1005.3 |
| 20260505202804 | 25 | 181 | 9.7 | 33.8 | 0.00 | 0.00 | 0.00 | 38 | 1005.4 |
| 20260505201803 | 24 | 163 | 6.4 | 41.8 | 0.00 | 0.00 | 0.00 | 38 | 1005.3 |
| 20260505201303 | 25 | 165 | 9.7 | 41.8 | 0.00 | 0.00 | 0.00 | 37 | 1005.3 |
| 20260505195803 | 25 | 137 | 11.3 | 25.7 | 0.00 | 0.00 | 0.00 | 36 | 1005.4 |
| 20260505195305 | 25 | 198 | 9.7 | 25.7 | 0.00 | 0.00 | 0.00 | 36 | 1005.4 |
| 20260505194803 | 25 | 214 | 6.4 | 22.5 | 0.00 | 0.00 | 0.00 | 38 | 1005.3 |
| 20260505193803 | 25 | 162 | 12.9 | 25.7 | 0.00 | 0.00 | 0.00 | 38 | 1005.4 |
| 20260505193304 | 25 | 182 | 11.3 | 25.7 | 0.00 | 0.00 | 0.00 | 38 | 1005.4 |
| 20260505192803 | 25 | 270 | 4.8 | 40.2 | 0.00 | 0.00 | 0.00 | 39 | 1005.3 |
| 20260505192305 | 25 | 166 | 9.7 | 40.2 | 0.00 | 0.00 | 0.00 | 39 | 1005.5 |
| 20260505191803 | 25 | 152 | 14.5 | 40.2 | 0.00 | 0.00 | 0.00 | 39 | 1005.5 |
| 20260505191303 | 25 | 146 | 8.0 | 25.7 | 0.00 | 0.00 | 0.00 | 37 | 1005.7 |
| 20260505190803 | 25 | 163 | 8.0 | 25.7 | 0.00 | 0.00 | 0.00 | 36 | 1005.8 |
| 20260505190304 | 25 | 182 | 9.7 | 29.0 | 0.00 | 0.00 | 0.00 | 35 | 1005.9 |
| 20260505185804 | 25 | 167 | 8.0 | 29.0 | 0.00 | 0.00 | 0.00 | 36 | 1005.9 |
| 20260505185305 | 25 | 228 | 8.0 | 29.0 | 0.00 | 0.00 | 0.00 | 37 | 1005.9 |
| 20260505184803 | 25 | 197 | 8.0 | 33.8 | 0.00 | 0.00 | 0.00 | 39 | 1005.9 |
| 20260505183803 | 24 | 138 | 4.8 | 25.7 | 0.00 | 0.00 | 0.00 | 41 | 1006.1 |
| 20260505183304 | 24 | 210 | 11.3 | 25.7 | 0.00 | 0.00 | 0.00 | 38 | 1006.1 |
| 20260505182803 | 24 | 122 | 9.7 | 25.7 | 0.00 | 0.00 | 0.00 | 39 | 1006.0 |
| 20260505182306 | 25 | 189 | 14.5 | 25.7 | 0.00 | 0.00 | 0.00 | 38 | 1006.2 |
| 20260505181803 | 25 | 132 | 9.7 | 25.7 | 0.00 | 0.00 | 0.00 | 38 | 1006.2 |
| 20260505181304 | 24 | 141 | 9.7 | 25.7 | 0.00 | 0.00 | 0.00 | 41 | 1006.3 |
| 20260505180803 | 24 | 207 | 8.0 | 25.7 | 0.00 | 0.00 | 0.00 | 41 | 1006.4 |
| 20260505180304 | 24 | 133 | 9.7 | 22.5 | 0.00 | 0.00 | 0.00 | 40 | 1006.3 |
| 20260505175305 | 24 | 169 | 9.7 | 22.5 | 0.00 | 0.00 | 0.00 | 41 | 1006.4 |
| 20260505174804 | 24 | 152 | 9.7 | 22.5 | 0.00 | 0.00 | 0.00 | 41 | 1006.6 |
| 20260505173303 | 24 | 350 | 8.0 | 22.5 | 0.00 | 0.00 | 0.00 | 39 | 1006.5 |
| 20260505172802 | 24 | 185 | 6.4 | 20.9 | 0.00 | 0.00 | 0.00 | 40 | 1006.5 |
| 20260505172305 | 24 | 193 | 12.9 | 20.9 | 0.00 | 0.00 | 0.00 | 39 | 1006.4 |
| 20260505170802 | 24 | 197 | 8.0 | 32.2 | 0.00 | 0.00 | 0.00 | 40 | 1006.9 |
| 20260505170302 | 24 | 242 | 6.4 | 27.4 | 0.00 | 0.00 | 0.00 | 42 | 1006.8 |
| 20260505165305 | 23 | 198 | 8.0 | 40.2 | 0.00 | 0.00 | 0.00 | 45 | 1007.0 |
| 20260505164802 | 23 | 207 | 4.8 | 24.1 | 0.00 | 0.00 | 0.00 | 45 | 1006.9 |
| 20260505163303 | 23 | 176 | 9.7 | 19.3 | 0.00 | 0.00 | 0.00 | 44 | 1007.2 |
| 20260505162802 | 23 | 217 | 9.7 | 19.3 | 0.00 | 0.00 | 0.00 | 44 | 1007.3 |
| 20260505162305 | 23 | 174 | 8.0 | 16.1 | 0.00 | 0.00 | 0.00 | 46 | 1007.4 |
| 20260505161802 | 23 | 261 | 4.8 | 27.4 | 0.00 | 0.00 | 0.00 | 46 | 1007.4 |
| 20260505161302 | 23 | 147 | 9.7 | 27.4 | 0.00 | 0.00 | 0.00 | 46 | 1007.4 |
| 20260505160803 | 23 | 219 | 9.7 | 25.7 | 0.00 | 0.00 | 0.00 | 46 | 1007.5 |
| 20260505160303 | 23 | 285 | 4.8 | 24.1 | 0.00 | 0.00 | 0.00 | 47 | 1007.6 |
| 20260505153303 | 22 | 227 | 8.0 | 32.2 | 0.00 | 0.00 | 0.00 | 48 | 1008.1 |
| 20260505152802 | 22 | 220 | 4.8 | 16.1 | 0.00 | 0.00 | 0.00 | 50 | 1008.0 |
| 20260505152305 | 22 | 190 | 4.8 | 19.3 | 0.00 | 0.00 | 0.00 | 52 | 1008.0 |
| 20260505151802 | 22 | 192 | 4.8 | 27.4 | 0.00 | 0.00 | 0.00 | 53 | 1008.0 |
| 20260505151303 | 22 | 231 | 9.7 | 27.4 | 0.00 | 0.00 | 0.00 | 50 | 1008.0 |
| 20260505150302 | 22 | 220 | 11.3 | 20.9 | 0.00 | 0.00 | 0.00 | 50 | 1008.1 |
| 20260505140302 | 21 | 266 | 8.0 | 14.5 | 0.00 | 0.00 | 0.00 | 52 | 1008.3 |
| 20260505130303 | 18 | 123 | 1.6 | 4.8 | 0.00 | 0.00 | 0.00 | 62 | 1008.8 |
| 20260505124302 | 17 | 7 | 0.0 | 3.2 | 0.00 | 0.00 | 0.00 | 65 | 1008.8 |
| 20260505123803 | 16 | 126 | 0.0 | 4.8 | 0.00 | 0.00 | 0.00 | 66 | 1008.8 |
| 20260505123302 | 16 | 156 | 1.6 | 4.8 | 0.00 | 0.00 | 0.00 | 67 | 1008.9 |
| 20260505122305 | 16 | 103 | 1.6 | 4.8 | 0.00 | 0.00 | 0.00 | 68 | 1009.1 |
| 20260505121803 | 15 | 110 | 1.6 | 4.8 | 0.00 | 0.00 | 0.00 | 70 | 1009.1 |
| 20260505120803 | 15 | 132 | 1.6 | 8.0 | 0.00 | 0.00 | 0.00 | 71 | 1009.2 |
| 20260505120303 | 14 | 183 | 1.6 | 4.8 | 0.00 | 0.00 | 0.00 | 71 | 1009.0 |
| 20260505115803 | 13 | 49 | 1.6 | 4.8 | 0.00 | 0.00 | 0.00 | 75 | 1008.9 |
| 20260505114303 | 11 | 313 | 0.0 | 0.0 | 0.00 | 0.00 | 0.00 | 84 | 1009.1 |
| 20260505113803 | 10 | 313 | 0.0 | 0.0 | 0.00 | 0.00 | 0.00 | 85 | 1009.1 |
| 20260505112304 | 9 | 313 | 0.0 | 0.0 | 0.00 | 0.00 | 0.00 | 85 | 1008.9 |
| 20260505111802 | 9 | 313 | 0.0 | 0.0 | 0.00 | 0.00 | 0.00 | 85 | 1008.9 |
| 20260505111302 | 9 | 313 | 0.0 | 0.0 | 0.00 | 0.00 | 0.00 | 84 | 1008.9 |
| 20260505110302 | 8 | 313 | 0.0 | 1.6 | 0.00 | 0.00 | 0.00 | 84 | 1009.0 |
| 20260505101803 | 8 | 230 | 0.0 | 0.0 | 0.00 | 0.00 | 0.00 | 83 | 1008.6 |
| 20260505100803 | 8 | 230 | 0.0 | 0.0 | 0.00 | 0.00 | 0.00 | 83 | 1008.5 |
| 20260505100303 | 8 | 230 | 0.0 | 0.0 | 0.00 | 0.00 | 0.00 | 83 | 1008.5 |
| 20260505095803 | 8 | 230 | 0.0 | 0.0 | 0.00 | 0.00 | 0.00 | 83 | 1008.5 |
| 20260505095304 | 8 | 230 | 0.0 | 0.0 | 0.00 | 0.00 | 0.00 | 83 | 1008.4 |
| 20260505094803 | 8 | 230 | 0.0 | 0.0 | 0.00 | 0.00 | 0.00 | 83 | 1008.4 |
| 20260505094303 | 8 | 229 | 0.0 | 0.0 | 0.00 | 0.00 | 0.00 | 83 | 1008.3 |
| 20260505093802 | 9 | 188 | 0.0 | 1.6 | 0.00 | 0.00 | 0.00 | 83 | 1008.3 |
| 20260505093303 | 9 | 188 | 0.0 | 3.2 | 0.00 | 0.00 | 0.00 | 83 | 1008.3 |
| 20260505092305 | 9 | 160 | 0.0 | 3.2 | 0.00 | 0.00 | 0.00 | 83 | 1008.2 |
| 20260505091304 | 9 | 60 | 0.0 | 3.2 | 0.00 | 0.00 | 0.00 | 82 | 1008.3 |
| 20260505090803 | 9 | 63 | 0.0 | 3.2 | 0.00 | 0.00 | 0.00 | 81 | 1008.3 |
| 20260505090303 | 9 | 331 | 1.6 | 3.2 | 0.00 | 0.00 | 0.00 | 82 | 1008.4 |
| 20260505085304 | 9 | 317 | 0.0 | 0.0 | 0.00 | 0.00 | 0.00 | 81 | 1008.4 |
| 20260505084803 | 9 | 317 | 0.0 | 1.6 | 0.00 | 0.00 | 0.00 | 80 | 1008.4 |
| 20260505083803 | 9 | 317 | 1.6 | 1.6 | 0.00 | 0.00 | 0.00 | 80 | 1008.1 |
| 20260505083303 | 8 | 317 | 1.6 | 1.6 | 0.00 | 0.00 | 0.00 | 80 | 1008.3 |
| 20260505082803 | 8 | 317 | 0.0 | 1.6 | 0.00 | 0.00 | 0.00 | 80 | 1008.4 |
| 20260505081803 | 8 | 317 | 0.0 | 0.0 | 0.00 | 0.00 | 0.00 | 80 | 1008.5 |